• In Hungary
  • List of Countries
  • For 7 days
  • Water Temperature
  • Satellite Maps
  • Weather Map
  • News
  • Weather Widgets
  • user-avatar
    Login

    Hourly Weather Troickoe

    Today, 16 November, Friday

    Time Temperature Precipitation Wind Pressure Humidity
    00:00 -6°C° 0 mm 3 mps 765 mmHg 29%
    01:00 -6°C° 0 mm 3 mps 765 mmHg 29%
    02:00 -6°C° 0 mm 3 mps 765 mmHg 29%
    03:00 -6°C° 0 mm 3 mps 765 mmHg 28%
    04:00 -7°C° 0 mm 3 mps 765 mmHg 28%
    05:00 -7°C° 0 mm 3 mps 765 mmHg 27%
    06:00 -7°C° 0 mm 3 mps 766 mmHg 27%
    07:00 -6°C° 0 mm 3 mps 766 mmHg 26%
    08:00 -6°C° 0 mm 3 mps 766 mmHg 25%
    09:00 -6°C° 0 mm 3 mps 766 mmHg 24%
    10:00 -5°C° 0 mm 3 mps 766 mmHg 22%
    11:00 -2°C° 0 mm 3 mps 766 mmHg 20%
    12:00 -1°C° 0 mm 3 mps 766 mmHg 18%
    13:00 -1°C° 0 mm 3 mps 766 mmHg 19%
    14:00 -1°C° 0 mm 3 mps 766 mmHg 20%
    15:00 -1°C° 0 mm 3 mps 766 mmHg 21%
    16:00 -2°C° 0 mm 2 mps 766 mmHg 22%
    17:00 -3°C° 0 mm 2 mps 766 mmHg 23%
    18:00 -3°C° 0 mm 2 mps 766 mmHg 24%
    19:00 -3°C° 0 mm 2 mps 766 mmHg 24%
    20:00 -4°C° 0 mm 2 mps 766 mmHg 24%
    21:00 -4°C° 0 mm 2 mps 766 mmHg 24%
    22:00 -4°C° 0 mm 2 mps 766 mmHg 24%
    23:00 -4°C° 0 mm 2 mps 766 mmHg 24%

    Tomorrow, 17 November, Saturday

    Time Temperature Precipitation Wind Pressure Humidity
    00:00 -2°C° 0 mm 1 mps 765 mmHg 24%
    01:00 -2°C° 0 mm 1 mps 765 mmHg 24%
    02:00 -2°C° 0 mm 1 mps 765 mmHg 23%
    03:00 -2°C° 0 mm 1 mps 765 mmHg 23%
    04:00 -2°C° 0 mm 1 mps 765 mmHg 23%
    05:00 -2°C° 0 mm 1 mps 764 mmHg 23%
    06:00 -3°C° 0 mm 1 mps 764 mmHg 23%
    07:00 -2°C° 0 mm 1 mps 764 mmHg 22%
    08:00 -2°C° 0 mm 1 mps 764 mmHg 21%
    09:00 -2°C° 0 mm 1 mps 763 mmHg 20%
    10:00 -1°C° 0 mm 1 mps 763 mmHg 19%
    11:00 0°C° 0 mm 1 mps 762 mmHg 18%
    12:00 +1°C° 0 mm 1 mps 762 mmHg 16%
    13:00 +1°C° 0 mm 1 mps 761 mmHg 18%
    14:00 +1°C° 0 mm 1 mps 761 mmHg 19%
    15:00 -1°C° 0 mm 2 mps 760 mmHg 21%
    16:00 -1°C° 0 mm 2 mps 760 mmHg 21%
    17:00 -2°C° 0 mm 2 mps 759 mmHg 22%
    18:00 -3°C° 0 mm 2 mps 758 mmHg 23%
    19:00 -3°C° 0 mm 2 mps 758 mmHg 23%
    20:00 -3°C° 0 mm 2 mps 757 mmHg 23%
    21:00 -3°C° 0 mm 2 mps 757 mmHg 23%
    22:00 -4°C° 0 mm 3 mps 756 mmHg 24%
    23:00 -4°C° 0 mm 3 mps 755 mmHg 24%

    Day after tomorrow, 18 November, Sunday

    Time Temperature Precipitation Wind Pressure Humidity
    00:00 -5°C° 0 mm 3 mps 755 mmHg 24%
    01:00 -5°C° 0 mm 3 mps 754 mmHg 25%
    02:00 -5°C° 0 mm 3 mps 754 mmHg 25%
    03:00 -5°C° 0 mm 3 mps 753 mmHg 26%
    04:00 -5°C° 0 mm 3 mps 753 mmHg 27%
    05:00 -6°C° 0 mm 3 mps 752 mmHg 27%
    06:00 -6°C° 0 mm 3 mps 751 mmHg 28%
    07:00 -6°C° 0 mm 3 mps 751 mmHg 28%
    08:00 -6°C° 0 mm 3 mps 751 mmHg 27%
    09:00 -5°C° 0 mm 3 mps 751 mmHg 27%
    10:00 -4°C° 0 mm 3 mps 751 mmHg 25%
    11:00 -2°C° 0 mm 3 mps 751 mmHg 23%
    12:00 -1°C° 0 mm 3 mps 750 mmHg 22%
    13:00 -1°C° 0 mm 3 mps 750 mmHg 23%
    14:00 -1°C° 0 mm 3 mps 750 mmHg 24%
    15:00 -1°C° 0 mm 3 mps 750 mmHg 25%
    16:00 -2°C° 0 mm 3 mps 750 mmHg 28%
    17:00 -4°C° 0 mm 3 mps 750 mmHg 30%
    18:00 -5°C° 0 mm 3 mps 750 mmHg 33%
    19:00 -4°C° 0 mm 2 mps 751 mmHg 35%
    20:00 -4°C° 0 mm 2 mps 751 mmHg 36%
    21:00 -4°C° 0 mm 2 mps 751 mmHg 38%
    22:00 -4°C° 0 mm 2 mps 751 mmHg 40%
    23:00 -4°C° 0 mm 2 mps 751 mmHg 41%

    19 November, Monday

    Time Temperature Precipitation Wind Pressure Humidity
    00:00 -4°C° 0 mm 2 mps 752 mmHg 43%
    01:00 -5°C° 0 mm 2 mps 752 mmHg 44%
    02:00 -5°C° 0 mm 2 mps 752 mmHg 45%
    03:00 -5°C° 0 mm 2 mps 753 mmHg 47%
    04:00 -5°C° 0 mm 2 mps 753 mmHg 47%
    05:00 -5°C° 0 mm 2 mps 753 mmHg 48%
    06:00 -5°C° 0 mm 2 mps 753 mmHg 48%
    07:00 -5°C° 0 mm 2 mps 754 mmHg 47%
    08:00 -5°C° 0 mm 2 mps 754 mmHg 46%
    09:00 -2°C° 0 mm 1 mps 755 mmHg 46%
    10:00 -1°C° 0 mm 1 mps 755 mmHg 42%
    11:00 -2°C° 0 mm 2 mps 756 mmHg 39%
    12:00 -1°C° 0 mm 2 mps 756 mmHg 36%
    13:00 -1°C° 0 mm 2 mps 757 mmHg 37%
    14:00 +1°C° 0 mm 1 mps 757 mmHg 37%
    15:00 +1°C° 0 mm 1 mps 757 mmHg 38%
    16:00 -2°C° 0 mm 2 mps 757 mmHg 39%
    17:00 -2°C° 0 mm 2 mps 758 mmHg 40%
    18:00 -3°C° 0 mm 2 mps 758 mmHg 41%
    19:00 -3°C° 0 mm 2 mps 758 mmHg 41%
    20:00 -3°C° 0 mm 2 mps 758 mmHg 41%
    21:00 -3°C° 0 mm 2 mps 759 mmHg 41%
    22:00 -4°C° 0 mm 2 mps 759 mmHg 41%
    23:00 -4°C° 0 mm 2 mps 759 mmHg 40%

    20 November, Tuesday

    Time Temperature Precipitation Wind Pressure Humidity
    00:00 -4°C° 0 mm 2 mps 759 mmHg 40%
    01:00 -4°C° 0 mm 2 mps 759 mmHg 39%
    02:00 -4°C° 0 mm 2 mps 760 mmHg 39%
    03:00 -4°C° 0 mm 2 mps 760 mmHg 38%
    04:00 -4°C° 0 mm 2 mps 760 mmHg 37%
    05:00 -4°C° 0 mm 2 mps 760 mmHg 36%
    06:00 -4°C° 0 mm 2 mps 759 mmHg 35%
    07:00 -4°C° 0 mm 2 mps 760 mmHg 34%
    08:00 -4°C° 0 mm 2 mps 760 mmHg 32%
    09:00 -4°C° 0 mm 2 mps 760 mmHg 31%
    10:00 -3°C° 0 mm 2 mps 760 mmHg 29%
    11:00 -3°C° 0 mm 2 mps 760 mmHg 27%
    12:00 -2°C° 0 mm 2 mps 760 mmHg 25%
    13:00 -2°C° 0 mm 2 mps 759 mmHg 26%
    14:00 -2°C° 0 mm 2 mps 759 mmHg 27%
    15:00 -2°C° 0 mm 2 mps 759 mmHg 28%
    16:00 -3°C° 0 mm 2 mps 759 mmHg 31%
    17:00 -3°C° 0 mm 2 mps 759 mmHg 34%
    18:00 -3°C° 0 mm 2 mps 759 mmHg 36%
    19:00 -3°C° 0 mm 2 mps 759 mmHg 41%
    20:00 -4°C° 0 mm 2 mps 759 mmHg 45%
    21:00 -4°C° 0 mm 2 mps 758 mmHg 49%
    22:00 -4°C° 0 mm 2 mps 758 mmHg 54%
    23:00 -4°C° 0 mm 2 mps 758 mmHg 59%

    21 November, Wednesday

    Time Temperature Precipitation Wind Pressure Humidity
    00:00 -4°C° 0 mm 2 mps 758 mmHg 63%
    01:00 -4°C° 0 mm 2 mps 758 mmHg 67%
    02:00 -5°C° 0 mm 2 mps 758 mmHg 71%
    03:00 -5°C° 0 mm 2 mps 758 mmHg 74%
    04:00 -5°C° 0 mm 2 mps 757 mmHg 77%
    05:00 -5°C° 0 mm 2 mps 757 mmHg 80%
    06:00 -5°C° 0 mm 2 mps 757 mmHg 84%
    07:00 -5°C° 0 mm 2 mps 757 mmHg 84%
    08:00 -5°C° 0 mm 2 mps 757 mmHg 85%
    09:00 -5°C° 0 mm 2 mps 756 mmHg 86%
    10:00 -4°C° 0 mm 2 mps 756 mmHg 81%
    11:00 -3°C° 0 mm 2 mps 756 mmHg 77%
    12:00 -2°C° 0 mm 2 mps 756 mmHg 73%
    13:00 -2°C° 0 mm 2 mps 755 mmHg 73%
    14:00 -2°C° 0 mm 2 mps 755 mmHg 73%
    15:00 -2°C° 0 mm 2 mps 754 mmHg 73%
    16:00 -2°C° 0 mm 2 mps 754 mmHg 77%
    17:00 -3°C° 0 mm 2 mps 754 mmHg 80%
    18:00 -4°C° 0 mm 2 mps 754 mmHg 84%
    19:00 -4°C° 0 mm 2 mps 754 mmHg 85%
    20:00 -4°C° 0 mm 2 mps 753 mmHg 86%
    21:00 -4°C° 0 mm 2 mps 753 mmHg 87%
    22:00 -4°C° 0 mm 2 mps 753 mmHg 88%
    23:00 -5°C° 0 mm 2 mps 753 mmHg 88%
    Show more